Location: Neuvy Saint Sepulchre
(46.5953°N, 1.8122°E)
Time: 15:59:26
(UTC+02:00)

ISS - Pass Details

Date: 07 May 2026
Orbit: 414 x 424 km, 51.6° (Epoch: 21 May)

Event Time Altitude Azimuth Distance (km) Brightness Sun altitude
Rises 23:13:14 0° 228° (SW) 2,338 0.0 -17.3°
Reaches altitude 10° 23:15:21 10° 223° (SW) 1,480 -1.1 -17.6°
Enters shadow 23:16:38 21° 214° (SW) 989 -2.1 -17.7°
